Flag for Netherlands Weather past 2 weeks in Leiden, Netherlands

Now
57 °F

Mostly cloudy.


Feels Like: 54 °F
Forecast: 52 / 56 °F
Wind: 16 mph from Southwest

Location: Rotterdam Zestienhoven Airport

Current Time: Oct 23, 2014 at 10:49:03 PM

Latest Report: Oct 23, 2014 at 10:25 PM


Visibility: N/A

Pressure: 30.12 "Hg

Humidity: 72%

Dew point: 48 °F

Location of LeidenLocation

Historic Weather in Leiden — Graph

°F

Leiden temperature yesterday

Maximum temperature yesterday: 55 °F (at 1:25 PM)
Minimum temperature yesterday: 46 °F (at 4:25 AM)
Average temperature yesterday: 51 °F

Past Weeks' High & Low Weather Summary

 TemperatureHumidityPressure
High73 °F (Oct 18, 3:55 PM)100% (Oct 11, 2:55 AM)30.18 "Hg (Oct 11, 2:55 AM)
Low46 °F (Oct 11, 4:25 AM)56% (Oct 9, 4:55 PM)29.45 "Hg (Oct 8, 9:55 PM)
Average58 °F84%29.82 "Hg
* Reported Oct 8 9:25 PM — Oct 23 9:55 PM, Leiden, Weather by CustomWeather, © 2014

Note: Actual official high and low records may vary slightly from our data, if they occured in-between our weather recording intervals... More about our weather records

Advertising

Leiden weather history for previous 24 hours

 ConditionsComfort  
Time TempWeatherWind HumidityBarometerVisibility
9:55 PM
Oct 23
55 °FMostly cloudy.16 mph77%30.12 "HgN/A
9:25 PM57 °FOvercast.15 mph77%30.12 "HgN/A
8:55 PM55 °FOvercast.16 mph82%30.12 "HgN/A
8:25 PM55 °FMostly cloudy.16 mph88%30.12 "HgN/A
7:55 PM57 °FPartly cloudy.15 mph82%30.12 "HgN/A
7:25 PM55 °FPartly sunny.13 mph88%30.12 "HgN/A
6:55 PM55 °FCloudy.13 mph88%30.12 "HgN/A
6:25 PM55 °FOvercast.14 mph88%30.12 "HgN/A
5:55 PM55 °FMostly cloudy.13 mph88%30.12 "HgN/A
5:25 PM57 °FCloudy.14 mph77%30.12 "HgN/A
4:55 PM57 °FMore clouds than sun.14 mph77%30.12 "HgN/A
4:25 PM57 °FMostly cloudy.14 mph77%30.12 "HgN/A
3:55 PM57 °FMore clouds than sun.15 mph77%30.12 "HgN/A
3:25 PM57 °FBroken clouds.13 mph77%30.15 "HgN/A
2:55 PM57 °FMostly cloudy.13 mph77%30.15 "HgN/A
2:25 PM57 °FCloudy.14 mph77%30.15 "HgN/A
1:55 PM57 °FBroken clouds.12 mph77%30.15 "HgN/A
1:25 PM57 °FPassing clouds.12 mph82%30.15 "HgN/A
12:55 PM57 °FBroken clouds.10 mph82%30.15 "HgN/A
12:25 PM59 °FClear.12 mph77%30.15 "HgN/A
11:55 AM57 °FPartly sunny.14 mph77%30.15 "HgN/A
11:25 AM57 °FOvercast.13 mph77%30.15 "HgN/A
10:55 AM55 °FMore clouds than sun.9 mph88%30.15 "HgN/A
10:25 AM55 °FPartly sunny.9 mph82%30.15 "HgN/A
9:55 AM54 °FOvercast.10 mph88%30.15 "HgN/A
9:25 AM54 °FMostly cloudy.9 mph88%30.15 "HgN/A
8:55 AM54 °FMostly cloudy.10 mph88%30.15 "HgN/A
8:25 AM54 °FOvercast.8 mph88%30.15 "HgN/A
7:55 AM54 °FOvercast.12 mph88%30.15 "HgN/A
7:25 AM54 °FOvercast.9 mph88%30.12 "HgN/A
6:55 AM54 °FOvercast.10 mph88%30.15 "HgN/A
6:25 AM54 °FOvercast.9 mph88%30.15 "HgN/A
5:55 AM54 °FOvercast.9 mph88%30.15 "HgN/A
5:25 AM54 °FOvercast.8 mph88%30.15 "HgN/A
4:55 AM54 °FOvercast.8 mph82%30.15 "HgN/A
4:25 AM54 °FMostly cloudy.7 mph82%30.15 "HgN/A
3:55 AM54 °FMostly cloudy.8 mph82%30.15 "HgN/A
3:25 AM52 °FOvercast.6 mph88%30.18 "HgN/A
2:55 AM50 °FPassing clouds.5 mph94%30.15 "HgN/A
2:25 AM50 °FClear.5 mph88%30.15 "HgN/A
1:55 AM54 °FClear.7 mph77%30.15 "HgN/A
1:25 AM54 °FMostly cloudy.5 mph82%30.18 "HgN/A
12:55 AM52 °FOvercast.5 mph88%30.18 "HgN/A
12:25 AM52 °FLight rain. Overcast.2 mph88%30.18 "HgN/A
11:55 PM
Oct 22
52 °FMostly cloudy.2 mph82%30.18 "HgN/A
11:25 PM54 °FMostly cloudy.3 mph77%30.18 "HgN/A
10:55 PM52 °FMostly cloudy.5 mph77%30.18 "HgN/A
10:25 PM50 °FMostly cloudy.5 mph82%30.18 "HgN/A
Weather by CustomWeather, © 2014

See weather overviewHow to use our weather pages